SCP
0 0 0 0 0 0 0 0 0 0 0 0 -0 0 0 0 0 0 -0 -0 -0 -0 -0 -0 -0 -0 -0 -0 -0 -0 -0 -0
0 0 0 0 0 0 0 0 -0 0 0 0 0 0 0 0 0 0 0 -0 -0 -0 -0 -0 -0 -0 -0 -0 -0 -0 -0 -0
0 0 0 0 0 0 0 0 0 0 0 0 0 0 0 0 0 0 0 0 -0 -0 -0 -0 -0 -0 -0 -0 -0 0 0 0
0 0 0 0 0 0 0 0 0 0 0 0 0 0 0 0 0 0 0 0 0 -0 -0 -0 -0 -0 -0 -0 -0 -0 0 0
-0 0 0 0 0 0 0 0 0 0 0 0 0 0 0 0 0 0 0 0 0 -0 -0 -0 -0 -0 -0 -0 -0 -1 -0 0
0 0 0 0 0 0 0 0 0 0 0 0 0 0 0 0 0 0 0 0 0 0 -0 -0 -0 -1 -1 -1 -1 -1 -0 -0
0 0 0 0 0 0 0 0 0 0 0 0 0 0 0 0 0 0 0 0 1 1 0 -0 0 -0 -1 -1 -1 -1 -0 0
0 0 0 0 0 0 0 0 0 0 0 0 0 0 0 0 0 0 0 0 0 1 1 0 -0 -0 -1 -1 -0 -0 -0 0
0 0 0 0 0 0 0 0 0 0 0 0 0 0 0 0 0 0 0 0 0 0 1 0 -0 -0 -0 -0 0 -1 0 0
0 0 0 0 0 0 0 0 0 0 0 0 0 0 0 0 0 1 1 0 0 0 0 0 0 0 1 0 1 0 1 1
0 0 0 0 0 0 0 0 0 0 0 0 0 0 -0 0 0 0 0 0 0 0 0 1 1 1 2 1 1 1 1 1
0 0 0 0 0 0 0 0 1 1 1 1 1 0 1 1 1 0 0 0 0 0 1 1 2 2 1 1 2 2 1 0
0 0 0 0 0 0 0 1 1 1 1 1 1 1 1 1 1 1 0 0 0 1 1 1 1 1 1 2 2 1 1 0
0 0 0 0 0 0 1 0 1 1 1 1 1 1 1 1 1 1 1 1 2 2 2 1 1 1 1 2 0 1 0 0
0 0 1 0 0 0 0 0 1 0 1 0 0 0 0 1 1 1 0 0 1 1 1 1 1 2 0 0 1 0 0 0
0 0 0 0 0 0 0 0 0 0 1 0 0 0 0 0 1 0 0 0 0 0 1 1 1 0 1 0 0 0 0 0
0 0 0 0 0 0 0 0 0 0 0 0 0 0 0 1 1 1 0 0 0 0 0 1 0 1 1 0 0 0 0 0
0 0 0 0 0 0 0 0 0 0 0 0 0 0 0 1 1 1 0 0 0 0 0 0 0 0 1 1 0 0 0 0
0 0 0 0 0 0 0 0 0 0 0 0 0 0 0 1 1 2 1 1 1 0 0 0 0 0 0 0 0 0 0 0
Wind_Speed_500mb
13 22 25 35 24 36 44 44 21 29 17 15 33 32 26 4 10 18 37 55 66 66 65 58 55 56 59 59 60 49 46 49
19 13 20 27 15 19 24 39 44 35 34 19 22 16 16 7 11 16 29 44 59 62 62 58 56 56 56 60 59 57 47 46
8 23 27 20 26 26 29 24 31 32 30 29 19 26 20 13 4 13 29 36 51 56 56 55 52 54 54 57 58 59 49 42
26 10 10 23 30 36 24 32 21 29 31 15 14 16 21 13 9 13 27 30 42 49 53 53 53 53 55 54 54 53 47 44
22 16 15 18 26 28 35 33 38 31 23 30 26 19 24 20 10 15 32 34 39 48 52 50 51 52 53 56 57 55 50 45
24 24 17 22 23 24 32 30 34 36 40 29 37 35 15 23 18 19 30 43 43 47 49 49 50 53 58 59 59 60 58 54
26 27 27 28 27 28 31 35 39 38 37 24 27 19 27 31 26 25 29 44 50 54 54 53 56 57 59 62 66 67 64 57
27 35 30 36 37 35 30 30 35 34 39 30 12 25 26 27 26 22 26 36 46 49 54 58 61 63 64 68 66 65 64 58
30 31 27 35 41 41 23 23 24 28 19 19 19 19 25 30 29 25 21 28 42 51 56 60 65 65 67 69 64 70 66 62
23 27 34 37 5 14 19 19 14 22 17 21 24 22 18 6 27 28 21 20 32 43 47 49 52 54 57 62 63 60 55 62
23 25 30 36 15 14 17 25 7 13 11 21 31 30 16 17 34 31 25 20 27 38 42 45 51 54 60 58 58 60 63 59
21 23 30 21 12 10 12 24 12 6 12 22 39 22 22 45 38 32 21 11 19 30 38 43 50 62 60 63 69 63 58 54
24 24 25 13 6 3 23 1 15 18 20 23 18 23 40 41 34 26 13 2 11 23 34 41 55 55 62 72 72 73 64 60
21 30 37 9 6 20 14 8 13 21 23 27 27 30 34 37 33 22 12 3 11 24 32 39 53 54 65 73 78 78 62 63
16 9 9 10 16 15 16 12 12 21 26 30 31 30 35 33 28 21 11 2 8 18 27 34 43 59 75 78 79 66 56 61
27 23 32 30 22 19 14 14 16 23 24 30 30 36 30 29 26 16 8 2 11 15 21 32 47 62 70 72 62 53 65 67
31 35 44 36 36 22 15 20 22 27 26 27 27 35 30 25 23 12 11 7 5 10 18 28 40 62 66 66 65 71 66 62
30 41 43 45 31 23 36 37 36 30 30 31 29 31 32 20 23 18 8 10 5 8 16 25 39 52 62 71 63 61 54 57
55 59 62 58 62 62 54 49 39 36 31 29 31 28 25 24 26 21 15 13 15 13 13 20 28 43 67 70 51 45 48 57
Wind_Direction_500mb
235 248 249 240 238 257 269 267 261 272 221 253 267 266 278 351 270 209 195 200 198 199 197 195 194 195 200 206 205 204 204 206
238 206 224 254 318 215 231 250 256 241 253 264 279 257 289 280 243 194 193 195 196 196 196 196 197 197 198 204 207 207 206 206
214 213 228 188 238 239 280 263 256 255 249 231 227 255 290 333 312 213 194 195 192 194 196 195 194 195 193 195 199 203 202 196
281 86 323 287 266 242 241 243 246 271 272 152 212 286 296 286 250 229 203 196 195 192 190 190 188 189 189 190 190 192 190 191
252 176 196 242 247 250 265 259 257 271 264 244 257 261 286 296 263 214 198 191 190 191 192 192 189 187 186 186 188 183 183 180
288 337 330 291 266 255 258 255 257 250 263 260 278 263 281 304 285 243 209 193 188 188 190 189 188 186 185 183 184 181 184 194
269 276 280 271 277 270 262 260 262 276 275 291 254 328 310 302 294 263 226 203 194 188 190 189 184 186 187 185 184 188 191 194
272 272 263 264 268 268 267 263 267 261 271 269 283 294 293 303 309 289 252 225 208 198 192 191 189 187 186 185 186 185 190 190
267 270 271 261 255 259 261 268 276 260 286 349 289 301 309 312 318 310 279 241 214 206 199 194 195 189 187 186 182 187 192 187
272 274 257 265 31 295 273 271 255 270 289 309 303 305 303 29 345 331 318 264 221 211 206 203 196 193 185 185 184 182 181 187
258 251 256 274 250 256 263 269 212 283 300 321 317 288 161 337 338 327 309 283 227 212 205 196 192 188 182 180 180 181 187 182
242 260 268 255 19 349 302 259 133 324 355 352 336 292 41 350 343 335 320 283 222 204 197 192 187 186 179 177 181 177 180 179
237 252 266 283 327 297 243 307 347 354 348 349 354 341 323 336 341 345 345 270 190 186 189 190 188 180 181 180 178 181 184 175
234 263 261 67 234 253 1 334 355 339 339 329 330 330 334 337 336 343 3 55 151 173 183 192 182 181 181 178 183 188 181 185
291 267 39 337 299 299 293 313 346 345 330 326 329 335 333 331 327 332 345 102 166 185 189 194 193 184 186 183 190 181 188 187
274 257 274 293 269 267 270 293 320 333 328 335 348 330 327 327 321 320 332 243 198 216 202 187 187 191 196 193 179 184 188 195
264 264 270 262 262 266 277 310 311 312 314 318 334 320 319 325 312 304 317 312 264 233 212 203 198 194 200 185 184 190 194 200
266 281 289 294 286 264 304 297 296 291 296 303 312 303 302 330 304 290 290 288 302 258 233 218 205 199 196 186 193 196 206 204
271 273 275 279 276 276 283 284 288 292 288 288 288 282 304 306 296 279 273 262 245 259 232 212 207 200 197 194 207 211 207 191
Wind_Speed_850mb
13 22 25 35 24 36 44 44 21 29 17 15 33 32 26 4 10 18 37 55 66 66 65 58 55 56 59 59 60 49 46 49
19 13 20 27 15 19 24 39 44 35 34 19 22 16 16 7 11 16 29 44 59 62 62 58 56 56 56 60 59 57 47 46
8 23 27 20 26 26 29 24 31 32 30 29 19 26 20 13 4 13 29 36 51 56 56 55 52 54 54 57 58 59 49 42
26 10 10 23 30 36 24 32 21 29 31 15 14 16 21 13 9 13 27 30 42 49 53 53 53 53 55 54 54 53 47 44
22 16 15 18 26 28 35 33 38 31 23 30 26 19 24 20 10 15 32 34 39 48 52 50 51 52 53 56 57 55 50 45
24 24 17 22 23 24 32 30 34 36 40 29 37 35 15 23 18 19 30 43 43 47 49 49 50 53 58 59 59 60 58 54
26 27 27 28 27 28 31 35 39 38 37 24 27 19 27 31 26 25 29 44 50 54 54 53 56 57 59 62 66 67 64 57
27 35 30 36 37 35 30 30 35 34 39 30 12 25 26 27 26 22 26 36 46 49 54 58 61 63 64 68 66 65 64 58
30 31 27 35 41 41 23 23 24 28 19 19 19 19 25 30 29 25 21 28 42 51 56 60 65 65 67 69 64 70 66 62
23 27 34 37 5 14 19 19 14 22 17 21 24 22 18 6 27 28 21 20 32 43 47 49 52 54 57 62 63 60 55 62
23 25 30 36 15 14 17 25 7 13 11 21 31 30 16 17 34 31 25 20 27 38 42 45 51 54 60 58 58 60 63 59
21 23 30 21 12 10 12 24 12 6 12 22 39 22 22 45 38 32 21 11 19 30 38 43 50 62 60 63 69 63 58 54
24 24 25 13 6 3 23 1 15 18 20 23 18 23 40 41 34 26 13 2 11 23 34 41 55 55 62 72 72 73 64 60
21 30 37 9 6 20 14 8 13 21 23 27 27 30 34 37 33 22 12 3 11 24 32 39 53 54 65 73 78 78 62 63
16 9 9 10 16 15 16 12 12 21 26 30 31 30 35 33 28 21 11 2 8 18 27 34 43 59 75 78 79 66 56 61
27 23 32 30 22 19 14 14 16 23 24 30 30 36 30 29 26 16 8 2 11 15 21 32 47 62 70 72 62 53 65 67
31 35 44 36 36 22 15 20 22 27 26 27 27 35 30 25 23 12 11 7 5 10 18 28 40 62 66 66 65 71 66 62
30 41 43 45 31 23 36 37 36 30 30 31 29 31 32 20 23 18 8 10 5 8 16 25 39 52 62 71 63 61 54 57
55 59 62 58 62 62 54 49 39 36 31 29 31 28 25 24 26 21 15 13 15 13 13 20 28 43 67 70 51 45 48 57
Wind_Direction_850mb
235 248 249 240 238 257 269 267 261 272 221 253 267 266 278 351 270 209 195 200 198 199 197 195 194 195 200 206 205 204 204 206
238 206 224 254 318 215 231 250 256 241 253 264 279 257 289 280 243 194 193 195 196 196 196 196 197 197 198 204 207 207 206 206
214 213 228 188 238 239 280 263 256 255 249 231 227 255 290 333 312 213 194 195 192 194 196 195 194 195 193 195 199 203 202 196
281 86 323 287 266 242 241 243 246 271 272 152 212 286 296 286 250 229 203 196 195 192 190 190 188 189 189 190 190 192 190 191
252 176 196 242 247 250 265 259 257 271 264 244 257 261 286 296 263 214 198 191 190 191 192 192 189 187 186 186 188 183 183 180
288 337 330 291 266 255 258 255 257 250 263 260 278 263 281 304 285 243 209 193 188 188 190 189 188 186 185 183 184 181 184 194
269 276 280 271 277 270 262 260 262 276 275 291 254 328 310 302 294 263 226 203 194 188 190 189 184 186 187 185 184 188 191 194
272 272 263 264 268 268 267 263 267 261 271 269 283 294 293 303 309 289 252 225 208 198 192 191 189 187 186 185 186 185 190 190
267 270 271 261 255 259 261 268 276 260 286 349 289 301 309 312 318 310 279 241 214 206 199 194 195 189 187 186 182 187 192 187
272 274 257 265 31 295 273 271 255 270 289 309 303 305 303 29 345 331 318 264 221 211 206 203 196 193 185 185 184 182 181 187
258 251 256 274 250 256 263 269 212 283 300 321 317 288 161 337 338 327 309 283 227 212 205 196 192 188 182 180 180 181 187 182
242 260 268 255 19 349 302 259 133 324 355 352 336 292 41 350 343 335 320 283 222 204 197 192 187 186 179 177 181 177 180 179
237 252 266 283 327 297 243 307 347 354 348 349 354 341 323 336 341 345 345 270 190 186 189 190 188 180 181 180 178 181 184 175
234 263 261 67 234 253 1 334 355 339 339 329 330 330 334 337 336 343 3 55 151 173 183 192 182 181 181 178 183 188 181 185
291 267 39 337 299 299 293 313 346 345 330 326 329 335 333 331 327 332 345 102 166 185 189 194 193 184 186 183 190 181 188 187
274 257 274 293 269 267 270 293 320 333 328 335 348 330 327 327 321 320 332 243 198 216 202 187 187 191 196 193 179 184 188 195
264 264 270 262 262 266 277 310 311 312 314 318 334 320 319 325 312 304 317 312 264 233 212 203 198 194 200 185 184 190 194 200
266 281 289 294 286 264 304 297 296 291 296 303 312 303 302 330 304 290 290 288 302 258 233 218 205 199 196 186 193 196 206 204
271 273 275 279 276 276 283 284 288 292 288 288 288 282 304 306 296 279 273 262 245 259 232 212 207 200 197 194 207 211 207 191